Glenwood, MN

6:54 PM CST on December 16, 2017 (GMT -0600)
Glenwood Municipal

Weather History for KGHW - July, 2013

Change the Weather History Date:

Saturday, July 6, 2013

  Actual Average Record
Temperature  
Mean Temperature 73 °F -  
Max Temperature 78 °F 82 °F 97 °F (1988)
Min Temperature 68 °F 58 °F 46 °F (1960)
Cooling Degree Days 8    
Growing Degree Days 23 (Base 50)    
Moisture  
Dew Point 67 °F    
Average Humidity 81    
Maximum Humidity 100    
Minimum Humidity 65    
Precipitation  
Precipitation 0.00 in - - ()
Sea Level Pressure  
Sea Level Pressure 29.83 in    
Wind  
Wind Speed 7 mph (SE)    
Max Wind Speed 13 mph    
Max Gust Speed -    
Visibility 9 miles    
Events      
Averages and records for this station are not official NWS values.
T = Trace of Precipitation, MM = Missing Value Source: NWS Daily Summary

Daily Weather History Graph

Daily Weather History Graph

Search for Another Location

Airport or City:

Trip Planner

Search our weather history database for the weather conditions in past years. The results will help you decide how hot, cold, wet, or windy it might be!

Date:

Astronomy

Jul. 06, 2013 Rise Set
Actual Time 5:39 AM CDT 9:12 PM CDT
Civil Twilight 5:01 AM CDT 9:49 PM CDT
Nautical Twilight 4:12 AM CDT 10:39 PM CDT
Astronomical Twilight 3:06 AM CDT 11:44 PM CDT
Moon 4:28 AM CDT (7/6) 7:51 PM CDT (7/6)
Length of Visible Light 16h 48m
Length of Day
15h 33m
Waning Crescent, 2% of the Moon is Illuminated
Jul 6
Waning Crescent
Jul 8
New
Jul 15
First Quarter
Jul 22
Full
Jul 29
Last Quarter

Hourly Weather History & Observations

Time (CDT) Temp. Dew Point Humidity Pressure Visibility Wind Dir Wind Speed Gust Speed Precip Events Conditions
12:01 AM 71.6 °F 66.2 °F 83% 29.83 in 10.0 mi SSE 6.9 mph - N/A   Clear
12:21 AM 71.6 °F 66.2 °F 83% 29.83 in 10.0 mi South 8.1 mph - N/A   Clear
12:41 AM 71.6 °F 66.2 °F 83% 29.83 in 10.0 mi South 5.8 mph - N/A   Clear
1:01 AM 71.6 °F 66.2 °F 83% 29.83 in 10.0 mi South 6.9 mph - N/A   Clear
1:21 AM 71.6 °F 66.2 °F 83% 29.83 in 10.0 mi South 8.1 mph - N/A   Clear
1:41 AM 71.6 °F 64.4 °F 78% 29.83 in 10.0 mi South 6.9 mph - N/A   Clear
2:12 AM 71.6 °F 64.4 °F 78% 29.83 in 10.0 mi South 9.2 mph - N/A   Clear
2:21 AM 71.6 °F 64.4 °F 78% 29.84 in 10.0 mi South 9.2 mph - N/A   Clear
2:41 AM 71.6 °F 64.4 °F 78% 29.83 in 10.0 mi South 9.2 mph - N/A   Clear
3:01 AM 71.6 °F 64.4 °F 78% 29.83 in 10.0 mi South 8.1 mph - N/A   Clear
3:30 AM 71.6 °F 64.4 °F 78% 29.82 in 10.0 mi South 10.4 mph - N/A   Clear
3:41 AM 71.6 °F 64.4 °F 78% 29.82 in 10.0 mi South 9.2 mph - N/A   Clear
4:13 AM 69.8 °F 62.6 °F 78% 29.82 in 10.0 mi South 6.9 mph - N/A   Clear
4:30 AM 69.8 °F 62.6 °F 78% 29.82 in 10.0 mi SSE 5.8 mph - N/A   Clear
4:54 AM 68.0 °F 62.6 °F 83% 29.83 in 10.0 mi SSE 5.8 mph - N/A   Clear
5:09 AM 69.8 °F 62.6 °F 78% 29.83 in 10.0 mi South 6.9 mph - N/A   Clear
5:21 AM 69.8 °F 62.6 °F 78% 29.83 in 10.0 mi South 5.8 mph - N/A   Scattered Clouds
5:41 AM 69.8 °F 62.6 °F 78% 29.83 in 10.0 mi South 5.8 mph - N/A   Scattered Clouds
6:12 AM 71.6 °F 62.6 °F 73% 29.84 in 10.0 mi South 5.8 mph - N/A   Scattered Clouds
6:22 AM 71.6 °F 62.6 °F 73% 29.84 in 10.0 mi South 6.9 mph - N/A   Scattered Clouds
6:52 AM 71.6 °F 62.6 °F 73% 29.85 in 10.0 mi SSW 5.8 mph - N/A   Scattered Clouds
7:10 AM 71.6 °F 64.4 °F 78% 29.85 in 10.0 mi SSW 10.4 mph - N/A   Clear
7:26 AM 71.6 °F 64.4 °F 78% 29.84 in 10.0 mi South 12.7 mph - N/A   Clear
7:41 AM 69.8 °F 64.4 °F 83% 29.84 in 10.0 mi South 10.4 mph - N/A   Scattered Clouds
8:13 AM 69.8 °F 66.2 °F 88% 29.84 in 10.0 mi SSW 9.2 mph - N/A   Scattered Clouds
8:28 AM 69.8 °F 66.2 °F 88% 29.84 in 10.0 mi South 10.4 mph - N/A   Scattered Clouds
8:41 AM 68.0 °F 66.2 °F 94% 29.83 in 7.0 mi South 9.2 mph - N/A   Scattered Clouds
9:01 AM 69.8 °F 66.2 °F 88% 29.85 in 7.0 mi South 4.6 mph - N/A   Clear
9:21 AM 69.8 °F 66.2 °F 88% 29.84 in 7.0 mi ESE 2.3 mph - N/A   Clear
9:41 AM 71.6 °F 68.0 °F 88% 29.83 in 10.0 mi East 4.6 mph - N/A   Clear
10:01 AM 71.6 °F 68.0 °F 88% 29.83 in 10.0 mi SE 3.5 mph - N/A   Clear
10:21 AM 73.4 °F 68.0 °F 83% 29.83 in 10.0 mi SE 4.6 mph - N/A   Clear
10:41 AM 73.4 °F 68.0 °F 83% 29.84 in 10.0 mi SE 6.9 mph - N/A   Clear
11:01 AM 73.4 °F 66.2 °F 78% 29.83 in 10.0 mi SE 8.1 mph - N/A   Clear
11:21 AM 73.4 °F 66.2 °F 78% 29.84 in 10.0 mi SE 5.8 mph - N/A   Clear
11:41 AM 75.2 °F 66.2 °F 73% 29.84 in 10.0 mi SE 5.8 mph - N/A   Clear
12:01 PM 75.2 °F 66.2 °F 73% - 10.0 mi ESE 3.5 mph - N/A   Clear
12:21 PM 75.2 °F 68.0 °F 78% 29.84 in 10.0 mi East 9.2 mph - N/A   Clear
12:41 PM 75.2 °F 68.0 °F 78% 29.83 in 10.0 mi ESE 10.4 mph - N/A   Clear
1:01 PM 75.2 °F 66.2 °F 73% 29.83 in 10.0 mi SE 8.1 mph - N/A   Clear
1:21 PM 75.2 °F 66.2 °F 73% 29.85 in 10.0 mi SSE 6.9 mph - N/A   Clear
1:41 PM 77.0 °F 66.2 °F 69% 29.85 in 10.0 mi SSE 8.1 mph - N/A   Clear
2:01 PM 77.0 °F 66.2 °F 69% 29.85 in 10.0 mi SSE 6.9 mph - N/A   Clear
2:21 PM 75.2 °F 66.2 °F 73% 29.84 in 10.0 mi SE 6.9 mph - N/A   Clear
2:41 PM 78.8 °F 66.2 °F 65% 29.85 in 10.0 mi SE 9.2 mph - N/A   Clear
3:01 PM 78.8 °F 66.2 °F 65% 29.85 in 10.0 mi SE 8.1 mph - N/A   Clear
3:21 PM 78.8 °F 66.2 °F 65% 29.85 in 10.0 mi SE 9.2 mph - N/A   Clear
3:41 PM 78.8 °F 68.0 °F 69% 29.85 in 10.0 mi SE 8.1 mph - N/A   Clear
4:01 PM 78.8 °F 66.2 °F 65% 29.84 in 10.0 mi ESE 9.2 mph - N/A   Clear
4:21 PM - - N/A% 29.84 in 10.0 mi ESE 6.9 mph - N/A   Clear
4:41 PM 78.8 °F 66.2 °F 65% 29.84 in 10.0 mi SE 5.8 mph - N/A   Clear
5:01 PM 77.0 °F 69.8 °F 78% 29.84 in 10.0 mi ESE 1.2 mph - N/A   Clear
5:21 PM 77.0 °F 69.8 °F 78% 29.85 in 10.0 mi East 2.3 mph - N/A   Scattered Clouds
5:41 PM 75.2 °F 71.6 °F 89% 29.84 in 10.0 mi NNE 2.3 mph - N/A   Scattered Clouds
6:02 PM 75.2 °F 69.8 °F 83% 29.83 in 10.0 mi ENE 5.8 mph - N/A   Clear
6:21 PM 75.2 °F 69.8 °F 83% 29.81 in 10.0 mi East 6.9 mph - N/A   Clear
6:41 PM 75.2 °F 69.8 °F 83% 29.81 in 7.0 mi ENE 4.6 mph - N/A   Clear
7:01 PM 75.2 °F 71.6 °F 89% 29.80 in 7.0 mi East 6.9 mph - N/A   Clear
7:21 PM 75.2 °F 69.8 °F 83% 29.81 in 7.0 mi ESE 5.8 mph - N/A   Clear
7:41 PM 75.2 °F 69.8 °F 83% 29.81 in 10.0 mi East 5.8 mph - N/A   Clear
8:01 PM 75.2 °F 69.8 °F 83% 29.81 in 10.0 mi East 4.6 mph - N/A   Clear
8:21 PM 75.2 °F 69.8 °F 83% 29.82 in 7.0 mi East 4.6 mph - N/A   Clear
8:41 PM 75.2 °F 69.8 °F 83% 29.82 in 7.0 mi ENE 3.5 mph - N/A   Clear
9:01 PM 73.4 °F 69.8 °F 88% 29.83 in 7.0 mi ENE 5.8 mph - N/A   Clear
9:21 PM 71.6 °F 69.8 °F 94% 29.83 in 7.0 mi East 5.8 mph - N/A   Scattered Clouds
9:41 PM 71.6 °F 69.8 °F 94% 29.84 in 7.0 mi ENE 5.8 mph - N/A   Clear
10:01 PM 71.6 °F 69.8 °F 94% 29.84 in 7.0 mi ENE 5.8 mph - N/A   Clear
10:21 PM 71.6 °F 69.8 °F 94% 29.84 in 5.0 mi ENE 4.6 mph - N/A   Scattered Clouds
10:41 PM 71.6 °F 69.8 °F 94% 29.84 in 5.0 mi ENE 3.5 mph - N/A   Scattered Clouds
11:01 PM 69.8 °F 69.8 °F 100% 29.84 in 5.0 mi NE 2.3 mph - N/A   Clear
11:21 PM 69.8 °F 68.0 °F 94% 29.84 in 4.0 mi ENE 4.6 mph - N/A   Clear
11:41 PM 69.8 °F 69.8 °F 100% 29.83 in 4.0 mi ENE 5.8 mph - N/A   Scattered Clouds